Theta_e
346 345 347 346 341 341 341 338 338 348 350 351 348 348 349 352 349 345 344 351 349 350 350 351 349 349 348 346 347 347 348 348 348 345 347 348 350 350 341 335 343 343 346
351 348 345 344 346 348 341 343 341 340 348 352 352 343 349 352 352 343 348 351 350 352 351 352 351 348 343 344 348 349 348 349 349 349 346 348 352 351 352 336 349 348 349
349 349 346 347 349 344 345 342 343 341 338 347 352 350 344 351 353 345 346 353 353 353 352 353 351 351 351 347 351 349 349 350 350 349 349 348 349 352 353 352 350 350 348
349 350 348 347 347 343 342 342 342 342 341 337 343 352 352 347 352 349 350 347 353 353 353 354 353 351 351 352 352 353 351 351 349 349 349 349 349 351 352 349 346 345 347
349 349 350 351 349 348 343 341 341 342 342 342 339 337 344 352 352 353 355 355 350 349 352 353 352 351 343 345 349 350 352 352 350 349 349 349 349 348 349 346 346 346 345
345 348 351 351 351 351 345 343 346 345 343 342 342 342 341 343 345 349 350 354 355 356 354 354 347 348 344 344 342 339 340 348 349 346 344 344 346 347 346 346 346 345 345
347 349 346 347 352 353 354 351 346 344 348 347 343 344 343 343 342 336 338 345 349 352 354 354 352 349 348 344 343 342 340 339 340 340 345 343 341 343 346 350 349 350 347
344 347 347 347 347 348 350 353 352 351 350 348 346 345 344 344 343 343 342 336 334 341 349 351 353 351 349 351 348 350 346 341 337 338 338 336 336 340 338 347 352 348 348
333 339 342 343 345 347 352 349 353 352 353 352 351 349 347 345 345 344 344 344 343 337 332 334 341 346 342 340 340 345 346 347 346 346 339 334 334 334 338 344 347 346 344
328 329 332 339 342 345 345 348 350 350 350 352 354 353 351 348 347 346 346 345 348 348 347 342 334 331 330 329 330 332 336 335 345 343 344 342 333 331 333 338 340 348 345
325 324 326 330 337 342 344 347 347 351 351 351 352 352 354 353 351 348 348 348 347 349 350 350 350 349 345 342 338 332 328 327 339 341 343 344 344 345 349 347 339 339 345
322 317 319 324 327 330 334 342 345 348 348 349 350 351 354 353 354 351 350 350 350 351 351 351 351 351 351 348 343 343 342 339 340 339 339 340 341 342 341 344 350 346 341
321 321 319 315 321 324 327 329 333 342 346 346 346 350 353 355 358 357 353 352 352 352 352 353 353 354 354 352 348 345 345 345 343 345 344 342 342 342 342 344 347 350 345
319 320 320 319 319 320 324 327 331 332 333 338 346 347 348 352 354 356 357 354 351 351 352 352 352 353 353 353 352 350 346 344 346 348 347 345 345 345 345 347 348 348 350
317 319 319 318 320 320 321 324 324 324 328 329 331 331 341 348 351 354 353 356 356 354 352 353 353 352 353 354 354 353 353 350 347 349 349 349 349 349 350 349 348 348 348
317 317 317 317 317 318 319 320 320 319 320 322 326 328 329 328 331 341 348 353 351 353 352 352 354 355 355 356 356 356 355 354 354 352 351 350 350 349 350 350 348 348 349
313 313 314 315 316 316 317 319 319 320 318 320 320 321 324 325 326 328 341 346 345 348 350 352 354 355 357 357 356 356 356 356 356 356 356 354 352 351 350 349 349 349 351
310 311 312 313 314 315 316 317 318 319 320 319 318 319 320 322 325 327 332 342 342 344 349 350 352 355 356 357 354 355 357 357 357 355 355 354 356 353 351 351 351 351 352
305 308 311 312 313 313 313 314 315 316 316 318 319 319 323 322 324 324 327 330 342 346 345 349 348 353 355 355 355 356 356 356 357 358 359 358 357 355 353 352 352 352 353
303 305 306 307 310 312 312 313 314 314 314 316 319 320 323 327 330 336 331 328 341 346 347 345 345 349 352 355 355 356 356 358 358 357 355 356 357 356 356 356 355 355 356
301 303 303 307 309 310 311 310 311 312 313 315 315 317 318 320 321 327 333 332 333 342 347 350 349 352 345 347 355 356 357 357 357 357 359 358 357 356 356 359 360 360 358
300 300 301 303 305 307 307 308 310 311 313 315 316 317 318 319 320 324 328 332 334 341 349 348 346 348 350 352 355 356 356 357 359 358 358 359 358 355 355 357 357 355 357
298 299 300 301 302 303 306 307 308 310 311 313 315 317 318 320 321 324 328 331 336 338 346 351 346 348 347 345 348 351 358 356 356 357 358 356 356 354 355 355 355 354 352
296 297 298 298 299 301 303 305 306 307 309 311 313 315 319 321 324 326 328 332 334 336 338 341 342 341 343 347 352 354 353 353 353 353 352 352 353 354 353 351 351 350 349
295 296 296 296 297 298 299 301 304 306 308 311 314 317 320 322 323 325 327 330 332 334 338 340 342 344 344 343 345 350 352 351 349 349 350 351 349 348 347 345 343 342 342
295 295 295 295 296 296 297 298 300 302 305 308 312 313 316 320 322 324 327 329 331 333 334 336 337 339 341 341 344 347 345 347 347 347 349 347 345 344 341 341 341 340 340
Wind_Speed
25 25 26 26 26 24 21 19 20 17 16 16 16 15 13 12 12 13 11 9 8 9 10 11 11 13 11 11 10 10 9 9 10 11 11 11 15 13 14 16 15 16 14
21 24 26 29 26 23 25 21 19 19 18 17 17 16 14 14 15 14 12 11 11 10 9 11 11 11 16 15 12 13 12 12 13 15 14 12 13 14 14 16 15 14 16
17 20 23 24 25 29 26 24 22 20 20 20 19 19 17 16 17 17 16 15 15 14 13 12 12 12 14 13 13 13 12 12 12 13 14 13 13 13 13 14 15 17 15
16 15 18 21 24 27 32 29 27 24 22 22 24 21 19 19 18 19 18 19 16 15 14 15 14 14 15 14 14 14 14 14 14 14 14 14 13 12 13 14 16 15 17
11 16 18 18 19 21 27 32 32 30 28 25 24 26 26 22 21 20 20 20 20 19 17 16 16 16 15 15 14 15 15 15 14 14 15 15 14 13 13 16 16 17 18
11 15 15 16 17 19 23 28 28 29 31 31 30 28 27 26 26 27 26 21 21 20 20 19 19 21 19 18 17 17 19 18 18 17 17 18 19 16 15 15 16 18 19
5 9 17 18 17 18 19 21 27 30 28 30 32 32 32 32 30 32 33 32 26 24 23 22 22 22 24 24 22 21 22 22 22 21 22 22 21 19 18 18 16 17 19
4 6 6 9 16 19 22 22 22 22 25 29 31 33 34 34 34 33 32 34 37 37 33 29 27 26 25 24 23 23 24 24 25 25 27 26 24 22 21 18 17 20 20
12 8 9 13 13 13 18 23 23 21 22 24 26 30 32 35 35 35 34 35 36 40 41 42 40 37 36 34 33 30 27 28 24 28 28 29 28 26 24 22 20 19 21
17 16 14 9 13 15 17 17 23 24 24 23 23 25 28 33 35 36 36 36 31 33 36 40 43 45 43 42 40 38 38 38 28 27 27 31 31 30 28 28 27 23 22
18 17 16 15 12 13 22 20 22 22 22 23 24 25 26 28 32 33 33 35 38 33 33 33 32 36 39 40 43 45 46 41 33 31 29 29 28 26 24 25 29 30 25
19 20 19 18 16 14 14 18 20 19 23 23 25 28 26 28 30 33 34 35 35 34 35 32 31 34 37 38 37 40 39 39 36 32 32 32 29 28 26 26 28 31 27
21 20 21 21 20 18 16 15 14 16 13 18 21 24 27 26 25 28 31 33 35 37 38 34 32 33 34 35 35 35 32 33 34 32 33 33 30 28 28 28 28 32 33
21 22 21 21 22 20 18 15 15 16 14 14 14 20 23 25 25 25 26 27 30 36 41 41 39 38 35 31 31 33 34 35 32 31 31 30 28 27 28 26 28 26 24
23 22 22 21 20 21 20 17 19 18 18 21 19 18 22 27 24 27 23 22 27 28 34 39 37 35 34 31 29 28 27 26 33 32 30 29 28 27 28 26 27 26 26
19 22 22 23 22 21 22 23 23 26 25 24 26 23 22 32 29 31 30 32 29 31 30 26 29 30 31 30 29 29 28 30 28 25 27 27 28 28 28 26 27 28 28
26 22 24 25 25 24 24 24 28 26 28 27 26 26 30 33 30 31 30 31 28 31 35 33 26 28 30 29 33 32 30 30 31 31 30 29 27 27 28 29 29 29 29
25 28 28 27 27 26 25 25 26 27 29 31 28 29 28 26 27 30 29 28 27 31 36 35 30 28 29 30 34 30 29 28 29 32 32 29 28 28 28 29 29 30 30
24 24 24 26 27 28 30 30 30 31 34 34 33 31 25 30 27 26 29 28 32 35 39 41 38 31 31 32 29 26 28 28 29 31 28 28 29 28 29 29 30 31 30
29 29 29 28 29 30 30 30 29 29 34 34 31 30 25 24 23 20 26 26 29 34 38 40 39 37 33 32 33 33 33 33 29 30 34 32 29 31 32 29 30 30 31
27 29 28 29 31 30 29 30 34 33 33 37 41 35 32 32 34 28 24 27 28 29 34 35 32 34 35 33 35 40 39 39 36 38 38 36 34 34 36 38 41 40 38
26 29 31 32 33 32 31 30 32 36 37 37 38 36 38 34 36 33 28 27 29 27 30 34 36 37 36 35 37 38 41 42 41 39 39 38 36 36 35 37 38 38 40
27 28 29 32 32 32 34 36 32 34 36 34 34 36 37 34 35 36 34 30 33 33 33 34 37 38 39 42 45 45 45 45 42 39 41 39 38 38 38 39 38 40 40
25 26 25 26 27 29 32 32 36 36 37 37 36 36 37 37 37 38 37 35 34 35 36 42 42 40 40 40 41 44 43 40 40 38 38 39 40 40 39 38 40 39 33
25 24 25 23 24 25 28 31 34 36 36 36 35 35 34 35 35 35 35 33 32 33 36 37 39 39 39 36 38 38 36 41 38 33 31 32 33 33 33 32 28 24 24
25 22 21 20 19 19 21 24 26 29 30 32 33 32 32 31 31 30 30 30 29 30 30 30 30 29 31 34 34 31 31 33 35 33 32 30 28 25 26 29 30 30 29
Wind_Direction
236 232 229 232 238 242 239 242 237 236 233 232 235 232 227 223 228 230 215 218 228 231 230 233 235 230 229 244 253 255 263 272 278 284 293 307 306 314 315 322 326 336 320
228 235 237 236 232 233 243 240 241 239 231 230 235 237 230 230 224 233 228 223 233 234 234 237 239 240 243 239 246 252 253 260 271 286 291 299 301 303 312 322 317 318 312
234 233 238 238 233 236 241 245 244 245 243 233 233 236 234 232 231 233 237 239 237 238 238 240 241 239 241 234 245 245 263 272 276 282 283 288 288 300 301 318 323 316 326
230 238 235 235 240 240 241 245 248 251 249 245 239 238 240 240 236 238 239 242 241 242 242 241 242 239 239 243 244 250 255 259 268 274 278 283 289 292 301 310 309 313 312
233 235 238 239 239 237 241 242 248 249 252 250 247 246 246 240 241 241 235 237 244 247 246 249 247 243 244 241 241 254 248 258 264 267 271 277 284 287 286 302 306 307 315
264 249 241 244 243 244 238 235 237 243 245 248 248 247 249 244 241 240 239 241 244 248 249 249 250 252 251 251 254 252 249 254 258 258 264 270 273 286 291 292 292 301 304
265 276 259 245 246 246 244 240 237 238 239 242 244 245 247 251 250 247 246 246 243 248 249 248 249 251 259 255 254 256 257 257 261 267 265 267 272 279 284 285 289 285 291
266 226 216 246 253 252 250 245 241 237 236 238 241 244 245 249 251 252 250 251 253 249 246 249 251 247 243 247 250 251 257 258 258 261 268 276 280 285 284 282 280 289 297
351 336 282 263 250 240 259 253 249 242 239 237 239 240 243 244 247 249 249 249 250 251 251 252 251 252 255 253 254 252 252 253 256 268 274 275 276 275 271 269 266 275 284
344 338 335 311 280 263 256 263 257 250 245 240 242 243 243 245 245 245 245 246 245 248 253 252 252 254 256 259 258 258 257 257 255 256 263 268 272 270 266 262 266 263 272
329 325 325 324 313 282 263 269 260 252 245 242 245 245 246 248 250 247 245 245 247 246 247 248 252 255 256 254 255 257 257 260 257 262 263 263 264 262 265 265 259 258 261
318 317 312 311 311 303 284 262 258 256 254 254 253 253 252 255 253 249 245 242 244 244 244 248 251 253 257 262 259 257 258 261 260 256 256 257 258 258 257 256 259 268 263
304 306 308 305 302 298 299 293 280 264 264 270 272 264 263 256 251 260 259 249 245 245 246 246 244 245 252 258 259 258 255 250 249 248 249 252 253 257 256 253 256 255 265
295 295 302 302 300 301 295 299 293 284 278 282 271 268 273 266 247 248 258 265 257 250 245 244 245 248 249 251 257 258 252 247 243 245 248 250 253 254 254 255 252 255 261
288 285 291 296 297 296 296 289 283 277 277 268 270 271 269 265 255 252 251 249 261 264 251 244 243 243 246 247 249 245 246 250 243 242 245 248 250 251 252 252 251 254 253
276 280 282 282 288 288 291 291 285 282 271 267 262 267 269 274 280 270 255 253 253 257 267 251 240 243 242 242 245 245 245 242 242 245 244 246 247 249 251 250 250 250 251
275 280 279 279 280 282 287 288 291 290 283 266 265 265 258 268 271 275 278 269 266 254 257 255 243 243 244 242 242 239 241 245 242 239 244 248 248 250 251 247 247 249 250
287 277 274 275 274 276 277 279 282 284 289 288 275 274 276 269 267 271 277 280 266 256 245 249 242 241 246 244 245 245 246 247 248 255 255 247 246 246 247 248 247 247 249
288 281 274 269 267 269 271 273 275 277 279 282 286 283 286 285 281 271 264 268 271 261 252 247 250 243 245 253 250 246 245 244 247 250 247 250 245 245 247 247 249 249 249
289 282 275 270 268 269 270 268 268 271 276 277 277 280 284 286 286 283 271 257 255 256 253 250 251 249 249 249 257 259 251 245 243 246 253 256 253 251 245 248 248 250 251
287 284 278 272 264 264 264 263 267 268 269 271 274 275 272 276 278 276 274 266 260 264 259 250 247 257 267 268 262 256 258 260 257 255 259 260 265 266 266 262 259 260 265
301 292 283 272 264 262 264 264 267 267 268 268 271 272 275 274 273 273 272 270 260 254 267 260 250 252 255 260 264 264 263 262 262 265 264 262 266 269 269 268 270 269 262
306 293 284 276 271 268 267 267 265 263 266 265 267 269 270 270 267 265 266 260 256 253 249 260 255 251 249 252 257 262 259 258 262 263 267 267 270 270 269 266 266 264 263
323 305 295 288 277 269 266 263 264 266 267 267 268 268 269 270 265 264 263 263 260 257 258 254 256 257 255 251 251 254 255 259 259 259 262 264 266 265 263 262 261 261 257
335 318 303 295 289 281 275 269 266 266 265 265 267 264 263 265 264 261 261 261 264 260 258 258 256 252 256 255 250 253 253 264 263 259 259 263 262 265 263 255 239 232 245
352 343 326 309 299 295 289 283 276 270 266 263 262 262 261 261 261 257 253 253 253 251 248 247 244 244 253 256 252 250 259 262 260 261 254 255 254 255 256 256 255 255 254